LES 2 AKM, 2529

Orbit data source: Space-Track

LES 2 AKM, 2529 is space debris in HEO originally from a launch on Thu, 06 May 1965 UTC launched from the Air Force Eastern Test Range (AFETR). Debris objects in space refer to the collection of defunct objects orbiting the Earth. Examples of debris include non-operational satellites, rocket bodies, and fragments generated from explosions, collisions, or faulty payload assembly.

Loading next visibility...
Identifier
2529, 1965-034D
Orbit
HEO
Country
Flag of USUS
Related business
Manufacturer
Thiokol/TE
Mission
Spacecraft
Bus & Motor
STAR 13, STAR 13
Mass
~127 kg wet, ~97 kg dry
Launch date (UTC)
1965-05-06 (61 years ago)
Launch vehicle
Unknown
Launch site
Air Force Eastern Test Range (AFETR)
Object type
Payload
Rocket body
Debris
Shape & HBR
Unknown
Radar Cross Section
Medium (>0.1 m² and <1 m²)

Expand to show TLE details & history
Last TLE update: 8 hours ago

TLE from 8 hours ago
0 LES 2 AKM
1 02529U 65034D   26102.21959237 -.00000028  00000-0  00000-0 0  9996
2 02529  32.1652  61.2306 3972525 353.4366   2.5711  4.64844268 17448
Epoch: 2026-04-12T05:16Z
TLE epoch observation values (Epoch: 2026-04-12T05:16:12.780Z)
Latitude
0.00001°
Longitude
141.74277°
Altitude
2,778.07 km
Speed
7.797 km/s
True Right ascension
04h 04m 53s
True Declination
0° 00' 00"
Sunlit
Object was in daylight at epoch
Visualization orbit readout
Latitude
Unknown
Longitude
Unknown
Altitude
Unknown
Speed
Unknown
Apparent Right ascension
Unknown
Apparent Declination
Unknown
Sunlit
N/A
Visualization observer readout
Local Sidereal Time
19:20:37
Azimuth
Unknown
Elevation
Unknown
Doppler factor
Unknown
Orbital elements
Apogee altitude
14,815.258 km
Perigee altitude
2,764.281 km
Semi-major axis
15,167.907 km
Eccentricity
0.39725
Inclination
32.1652°
RAAN
61.2306°
Arg. of periapsis
353.4366°
True anomaly
6.48673°
Mean anomaly
2.5711°
Eccentric anomaly
4.26304°
Mean motion
1.16186 °/min
Orbital period
309.85 mins
BSTAR
0
Loading maneuver chart data...
Computing Atmospheric mass density...
Loading historical data...
Loading historical data...
Loading historical data...
Loading historical data...
Loading historical data...
Loading historical data...
Loading historical data...
Other satellites on launch #34 in the year 1965 (1965-05-06 UTC)

Documentation

Showing up to 5 results
|